Time,TemperatureF,DewpointF,PressureIn,WindDirection,WindDirectionDegrees,WindSpeedMPH,WindSpeedGustMPH,Humidity,HourlyPrecipIn,Conditions,Clouds,dailyrainin,SoftwareType,DateUTC
2013-01-16 00:00:00,37.8,35.4,30.17,NE,44,0.0,0.0,91,0.05,,---,0.36,VWS V13.01,2013-01-16 05:00:00,
2013-01-16 00:01:00,37.8,35.4,30.18,NE,44,0.0,0.0,91,0.05,,---,0.00,VWS V13.01,2013-01-16 05:01:00,
2013-01-16 00:02:00,37.8,35.4,30.18,NE,44,0.0,0.0,91,0.05,,---,0.00,VWS V13.01,2013-01-16 05:02:00,
2013-01-16 00:07:00,37.8,35.4,30.17,ENE,69,1.0,5.0,91,0.06,,---,0.01,VWS V13.01,2013-01-16 05:07:00,
2013-01-16 00:12:00,37.8,35.4,30.17,ENE,66,3.0,4.0,91,0.06,,---,0.01,VWS V13.01,2013-01-16 05:12:00,
2013-01-16 00:17:00,37.8,35.4,30.16,NE,47,3.0,5.0,91,0.06,,---,0.02,VWS V13.01,2013-01-16 05:17:00,
2013-01-16 00:22:00,37.7,35.6,30.16,NE,34,4.0,4.0,92,0.07,,---,0.03,VWS V13.01,2013-01-16 05:22:00,
2013-01-16 00:27:00,37.7,35.6,30.15,NE,55,3.0,4.0,92,0.06,,---,0.03,VWS V13.01,2013-01-16 05:27:00,
2013-01-16 00:32:00,37.7,35.6,30.16,ENE,60,5.0,9.0,92,0.07,,---,0.04,VWS V13.01,2013-01-16 05:32:00,
2013-01-16 00:37:00,37.7,35.6,30.16,NNE,26,1.0,4.0,92,0.08,,---,0.05,VWS V13.01,2013-01-16 05:37:00,
2013-01-16 00:42:00,37.8,35.7,30.16,NE,42,5.0,6.0,92,0.07,,---,0.05,VWS V13.01,2013-01-16 05:42:00,
2013-01-16 00:47:00,37.7,35.6,30.15,NE,40,0.0,5.0,92,0.06,,---,0.05,VWS V13.01,2013-01-16 05:47:00,
2013-01-16 00:52:00,37.7,35.6,30.14,NNE,25,4.0,6.0,92,0.06,,---,0.05,VWS V13.01,2013-01-16 05:52:00,
2013-01-16 00:57:00,37.6,35.5,30.14,ENE,73,3.0,7.0,92,0.06,,---,0.06,VWS V13.01,2013-01-16 05:57:00,
2013-01-16 01:02:00,37.5,35.4,30.14,NE,42,5.0,5.0,92,0.07,,---,0.07,VWS V13.01,2013-01-16 06:02:00,
2013-01-16 01:07:00,37.5,35.4,30.14,NE,42,2.0,5.0,92,0.06,,---,0.07,VWS V13.01,2013-01-16 06:07:00,
2013-01-16 01:12:00,37.6,35.5,30.14,NE,46,0.0,4.0,92,0.06,,---,0.07,VWS V13.01,2013-01-16 06:12:00,
2013-01-16 01:17:00,37.5,35.4,30.14,NNE,14,4.0,10.0,92,0.05,,---,0.07,VWS V13.01,2013-01-16 06:17:00,
2013-01-16 01:22:00,37.5,35.4,30.13,East,96,4.0,8.0,92,0.05,,---,0.08,VWS V13.01,2013-01-16 06:22:00,
2013-01-16 01:27:00,37.4,35.3,30.13,NNE,21,3.0,5.0,92,0.06,,---,0.09,VWS V13.01,2013-01-16 06:27:00,
2013-01-16 01:32:00,37.4,35.3,30.13,NE,50,0.0,10.0,92,0.06,,---,0.09,VWS V13.01,2013-01-16 06:32:00,
2013-01-16 01:37:00,37.5,35.4,30.13,NE,55,4.0,7.0,92,0.05,,---,0.09,VWS V13.01,2013-01-16 06:37:00,
2013-01-16 01:42:00,37.5,35.4,30.13,ENE,67,3.0,4.0,92,0.04,,---,0.09,VWS V13.01,2013-01-16 06:42:00,
2013-01-16 01:47:00,37.6,35.5,30.12,ENE,70,4.0,7.0,92,0.05,,---,0.10,VWS V13.01,2013-01-16 06:47:00,
2013-01-16 01:52:00,37.7,35.9,30.12,NE,46,3.0,9.0,93,0.05,,---,0.10,VWS V13.01,2013-01-16 06:52:00,
2013-01-16 01:57:00,37.8,36.0,30.12,ENE,57,6.0,8.0,93,0.05,,---,0.11,VWS V13.01,2013-01-16 06:57:00,
2013-01-16 02:02:00,37.9,36.1,30.11,ENE,77,2.0,10.0,93,0.04,,---,0.11,VWS V13.01,2013-01-16 07:02:00,
2013-01-16 02:07:00,37.8,36.0,30.11,ENE,67,5.0,9.0,93,0.04,,---,0.11,VWS V13.01,2013-01-16 07:07:00,
2013-01-16 02:12:00,37.7,35.9,30.11,ENE,76,7.0,8.0,93,0.04,,---,0.11,VWS V13.01,2013-01-16 07:12:00,
2013-01-16 02:17:00,37.8,36.0,30.10,East,92,13.0,13.0,93,0.04,,---,0.11,VWS V13.01,2013-01-16 07:17:00,
2013-01-16 02:22:00,37.9,36.1,30.10,NNE,30,9.0,9.0,93,0.03,,---,0.12,VWS V13.01,2013-01-16 07:22:00,
2013-01-16 02:27:00,37.8,36.0,30.10,North,5,9.0,13.0,93,0.04,,---,0.12,VWS V13.01,2013-01-16 07:27:00,
2013-01-16 02:32:00,37.8,36.0,30.10,NNE,26,4.0,13.0,93,0.04,,---,0.13,VWS V13.01,2013-01-16 07:32:00,
2013-01-16 02:37:00,37.8,36.0,30.11,NE,53,3.0,14.0,93,0.04,,---,0.13,VWS V13.01,2013-01-16 07:37:00,
2013-01-16 02:42:00,37.8,36.0,30.10,East,85,6.0,9.0,93,0.04,,---,0.13,VWS V13.01,2013-01-16 07:42:00,
2013-01-16 02:47:00,37.7,35.9,30.10,NNE,24,6.0,12.0,93,0.04,,---,0.14,VWS V13.01,2013-01-16 07:47:00,
2013-01-16 02:52:00,37.7,35.9,30.10,NE,50,6.0,7.0,93,0.05,,---,0.15,VWS V13.01,2013-01-16 07:52:00,
2013-01-16 02:57:00,37.6,35.8,30.10,ENE,57,9.0,9.0,93,0.04,,---,0.15,VWS V13.01,2013-01-16 07:57:00,
2013-01-16 03:02:00,37.5,35.7,30.10,NE,49,2.0,10.0,93,0.05,,---,0.16,VWS V13.01,2013-01-16 08:02:00,
2013-01-16 03:07:00,37.5,35.7,30.09,NE,36,5.0,10.0,93,0.06,,---,0.17,VWS V13.01,2013-01-16 08:07:00,
2013-01-16 03:12:00,37.5,35.9,30.08,NNE,17,4.0,12.0,94,0.07,,---,0.18,VWS V13.01,2013-01-16 08:12:00,
2013-01-16 03:17:00,37.5,35.9,30.07,ENE,69,7.0,11.0,94,0.08,,---,0.19,VWS V13.01,2013-01-16 08:17:00,
2013-01-16 03:22:00,37.5,35.9,30.07,East,80,7.0,10.0,94,0.08,,---,0.19,VWS V13.01,2013-01-16 08:22:00,
2013-01-16 03:27:00,37.5,35.9,30.06,NE,40,9.0,11.0,94,0.08,,---,0.20,VWS V13.01,2013-01-16 08:27:00,
2013-01-16 03:32:00,37.5,35.9,30.06,NE,44,6.0,11.0,94,0.07,,---,0.20,VWS V13.01,2013-01-16 08:32:00,
2013-01-16 03:37:00,37.5,35.9,30.06,East,96,5.0,11.0,94,0.08,,---,0.21,VWS V13.01,2013-01-16 08:37:00,
2013-01-16 03:42:00,37.6,36.0,30.06,ENE,62,4.0,13.0,94,0.08,,---,0.21,VWS V13.01,2013-01-16 08:42:00,
2013-01-16 03:47:00,37.6,36.0,30.06,NE,49,9.0,16.0,94,0.07,,---,0.21,VWS V13.01,2013-01-16 08:47:00,
2013-01-16 03:52:00,37.6,36.0,30.06,ENE,57,7.0,7.0,94,0.07,,---,0.22,VWS V13.01,2013-01-16 08:52:00,
2013-01-16 03:57:00,37.6,36.0,30.06,NNE,15,4.0,14.0,94,0.08,,---,0.23,VWS V13.01,2013-01-16 08:57:00,
2013-01-16 04:02:00,37.6,36.0,30.06,ENE,63,4.0,11.0,94,0.07,,---,0.23,VWS V13.01,2013-01-16 09:02:00,
2013-01-16 04:07:00,37.5,35.9,30.06,ENE,70,13.0,13.0,94,0.07,,---,0.24,VWS V13.01,2013-01-16 09:07:00,
2013-01-16 04:12:00,37.5,35.9,30.05,NE,51,6.0,11.0,94,0.08,,---,0.25,VWS V13.01,2013-01-16 09:12:00,
2013-01-16 04:16:00,37.5,35.9,30.05,East,99,5.0,10.0,94,0.07,,---,0.26,VWS V13.01,2013-01-16 09:16:00,
2013-01-16 04:21:00,37.5,35.9,30.04,NE,56,2.0,12.0,94,0.08,,---,0.27,VWS V13.01,2013-01-16 09:21:00,
2013-01-16 04:26:00,37.5,35.9,30.05,NNE,29,5.0,5.0,94,0.07,,---,0.27,VWS V13.01,2013-01-16 09:26:00,
2013-01-16 04:31:00,37.5,35.9,30.05,North,360,4.0,7.0,94,0.07,,---,0.27,VWS V13.01,2013-01-16 09:31:00,
2013-01-16 04:36:00,37.5,35.9,30.04,ENE,63,3.0,6.0,94,0.07,,---,0.28,VWS V13.01,2013-01-16 09:36:00,
2013-01-16 04:41:00,37.5,35.9,30.05,NNE,28,10.0,11.0,94,0.07,,---,0.29,VWS V13.01,2013-01-16 09:41:00,
2013-01-16 04:46:00,37.4,35.8,30.06,North,349,4.0,13.0,94,0.08,,---,0.29,VWS V13.01,2013-01-16 09:46:00,
2013-01-16 04:51:00,37.4,35.8,30.06,North,360,3.0,5.0,94,0.07,,---,0.29,VWS V13.01,2013-01-16 09:51:00,
2013-01-16 04:56:00,37.4,35.8,30.07,North,5,4.0,9.0,94,0.08,,---,0.30,VWS V13.01,2013-01-16 09:56:00,
2013-01-16 05:01:00,37.3,35.7,30.07,North,360,6.0,9.0,94,0.08,,---,0.31,VWS V13.01,2013-01-16 10:01:00,
2013-01-16 05:06:00,37.2,35.6,30.06,NE,34,3.0,6.0,94,0.07,,---,0.31,VWS V13.01,2013-01-16 10:06:00,
2013-01-16 05:11:00,37.1,35.5,30.06,NE,47,6.0,12.0,94,0.07,,---,0.32,VWS V13.01,2013-01-16 10:11:00,
2013-01-16 05:16:00,37.1,35.5,30.05,North,5,10.0,10.0,94,0.07,,---,0.33,VWS V13.01,2013-01-16 10:16:00,
2013-01-16 05:21:00,37.0,35.4,30.05,NE,38,5.0,5.0,94,0.06,,---,0.33,VWS V13.01,2013-01-16 10:21:00,
2013-01-16 05:26:00,37.0,35.4,30.05,NNW,346,3.0,9.0,94,0.06,,---,0.33,VWS V13.01,2013-01-16 10:26:00,
2013-01-16 05:31:00,37.0,35.4,30.04,NE,43,7.0,7.0,94,0.06,,---,0.33,VWS V13.01,2013-01-16 10:31:00,
2013-01-16 05:36:00,37.0,35.4,30.05,NNE,31,5.0,7.0,94,0.05,,---,0.33,VWS V13.01,2013-01-16 10:36:00,
2013-01-16 05:41:00,37.0,35.4,30.04,NE,54,6.0,6.0,94,0.05,,---,0.33,VWS V13.01,2013-01-16 10:41:00,
2013-01-16 05:46:00,37.0,35.7,30.03,ENE,59,6.0,8.0,95,0.04,,---,0.33,VWS V13.01,2013-01-16 10:46:00,
2013-01-16 05:51:00,37.0,35.7,30.03,ENE,67,4.0,6.0,95,0.04,,---,0.33,VWS V13.01,2013-01-16 10:51:00,
2013-01-16 05:56:00,37.1,35.8,30.03,NNE,26,4.0,7.0,95,0.04,,---,0.34,VWS V13.01,2013-01-16 10:56:00,
2013-01-16 06:01:00,37.1,35.5,30.04,ENE,59,5.0,11.0,94,0.03,,---,0.34,VWS V13.01,2013-01-16 11:01:00,
2013-01-16 06:06:00,37.1,35.5,30.03,NE,34,11.0,13.0,94,0.03,,---,0.34,VWS V13.01,2013-01-16 11:06:00,
2013-01-16 06:11:00,37.2,35.9,30.04,NNE,28,3.0,10.0,95,0.02,,---,0.34,VWS V13.01,2013-01-16 11:11:00,
2013-01-16 06:16:00,37.3,36.0,30.03,ENE,62,6.0,12.0,95,0.03,,---,0.35,VWS V13.01,2013-01-16 11:16:00,
2013-01-16 06:21:00,37.3,36.0,30.01,ENE,64,6.0,10.0,95,0.02,,---,0.35,VWS V13.01,2013-01-16 11:21:00,
2013-01-16 06:26:00,37.4,36.1,30.01,NE,53,6.0,6.0,95,0.02,,---,0.35,VWS V13.01,2013-01-16 11:26:00,
2013-01-16 06:31:00,37.5,36.2,30.01,ENE,63,2.0,15.0,95,0.02,,---,0.35,VWS V13.01,2013-01-16 11:31:00,
2013-01-16 06:36:00,37.6,36.3,30.01,ENE,76,7.0,7.0,95,0.02,,---,0.35,VWS V13.01,2013-01-16 11:36:00,
2013-01-16 06:41:00,37.7,36.4,30.02,ENE,67,7.0,8.0,95,0.02,,---,0.35,VWS V13.01,2013-01-16 11:41:00,
2013-01-16 06:46:00,37.8,36.5,30.01,NE,52,10.0,11.0,95,0.02,,---,0.35,VWS V13.01,2013-01-16 11:46:00,
2013-01-16 06:51:00,37.9,36.6,30.02,East,82,7.0,8.0,95,0.02,,---,0.35,VWS V13.01,2013-01-16 11:51:00,
2013-01-16 06:56:00,38.0,36.7,30.01,ENE,64,5.0,9.0,95,0.01,,---,0.35,VWS V13.01,2013-01-16 11:56:00,
2013-01-16 07:01:00,38.1,36.8,30.01,NE,40,3.0,5.0,95,0.01,,---,0.35,VWS V13.01,2013-01-16 12:01:00,
2013-01-16 07:06:00,38.2,36.9,30.01,NE,42,5.0,10.0,95,0.01,,---,0.36,VWS V13.01,2013-01-16 12:06:00,
2013-01-16 07:11:00,38.3,37.0,30.01,NE,42,3.0,10.0,95,0.02,,---,0.36,VWS V13.01,2013-01-16 12:11:00,
2013-01-16 07:16:00,38.4,37.1,30.01,East,90,5.0,11.0,95,0.01,,---,0.36,VWS V13.01,2013-01-16 12:16:00,
2013-01-16 07:21:00,38.6,37.3,30.01,ENE,62,4.0,11.0,95,0.01,,---,0.36,VWS V13.01,2013-01-16 12:21:00,
2013-01-16 07:26:00,38.7,37.4,30.01,NNE,27,10.0,14.0,95,0.02,,---,0.37,VWS V13.01,2013-01-16 12:26:00,
2013-01-16 07:31:00,38.8,37.5,30.00,ENE,63,3.0,6.0,95,0.02,,---,0.37,VWS V13.01,2013-01-16 12:31:00,
2013-01-16 07:36:00,38.9,37.6,30.00,NNE,18,6.0,10.0,95,0.02,,---,0.37,VWS V13.01,2013-01-16 12:36:00,
2013-01-16 07:41:00,39.0,37.7,30.01,NNE,32,3.0,12.0,95,0.02,,---,0.37,VWS V13.01,2013-01-16 12:41:00,
2013-01-16 07:46:00,39.1,37.8,29.99,ENE,72,7.0,13.0,95,0.02,,---,0.37,VWS V13.01,2013-01-16 12:46:00,
2013-01-16 07:51:00,39.1,37.8,30.00,ENE,72,6.0,6.0,95,0.02,,---,0.37,VWS V13.01,2013-01-16 12:51:00,
2013-01-16 07:56:00,39.2,37.9,30.01,NNE,30,4.0,6.0,95,0.02,,---,0.37,VWS V13.01,2013-01-16 12:56:00,
2013-01-16 08:01:00,39.4,38.1,30.00,ENE,66,3.0,7.0,95,0.02,,---,0.37,VWS V13.01,2013-01-16 13:01:00,
2013-01-16 08:06:00,39.5,38.2,30.00,NE,36,3.0,9.0,95,0.02,,---,0.37,VWS V13.01,2013-01-16 13:06:00,
2013-01-16 08:11:00,39.6,38.3,30.01,NE,42,2.0,2.0,95,0.01,,---,0.37,VWS V13.01,2013-01-16 13:11:00,
2013-01-16 08:16:00,39.6,38.3,30.00,ENE,61,5.0,7.0,95,0.01,,---,0.37,VWS V13.01,2013-01-16 13:16:00,
2013-01-16 08:21:00,39.7,38.4,30.00,NE,48,5.0,10.0,95,0.01,,---,0.37,VWS V13.01,2013-01-16 13:21:00,
2013-01-16 08:26:00,39.8,38.5,29.99,NE,46,2.0,4.0,95,0.00,,---,0.37,VWS V13.01,2013-01-16 13:26:00,
2013-01-16 08:31:00,39.9,38.6,29.99,East,90,1.0,4.0,95,0.00,,---,0.37,VWS V13.01,2013-01-16 13:31:00,
2013-01-16 08:36:00,40.0,38.7,29.98,East,85,3.0,6.0,95,0.00,,---,0.37,VWS V13.01,2013-01-16 13:36:00,
2013-01-16 08:41:00,40.0,39.0,29.98,NNE,32,5.0,7.0,96,0.00,,---,0.37,VWS V13.01,2013-01-16 13:41:00,
2013-01-16 08:46:00,40.2,39.2,29.98,NE,43,2.0,4.0,96,0.00,,---,0.37,VWS V13.01,2013-01-16 13:46:00,
2013-01-16 08:51:00,40.2,38.9,29.98,ENE,77,4.0,7.0,95,0.00,,---,0.37,VWS V13.01,2013-01-16 13:51:00,
2013-01-16 08:56:00,40.4,39.1,29.98,ESE,107,2.0,8.0,95,0.00,,---,0.37,VWS V13.01,2013-01-16 13:56:00,
2013-01-16 09:01:00,40.4,39.1,29.97,ENE,61,5.0,9.0,95,0.00,,---,0.37,VWS V13.01,2013-01-16 14:01:00,
2013-01-16 09:06:00,40.5,39.2,29.97,East,86,2.0,3.0,95,0.00,,---,0.37,VWS V13.01,2013-01-16 14:06:00,
2013-01-16 09:11:00,40.6,39.5,29.97,ENE,78,3.0,3.0,96,0.00,,---,0.37,VWS V13.01,2013-01-16 14:11:00,
2013-01-16 09:16:00,40.7,39.7,29.97,East,91,1.0,3.0,96,0.00,,---,0.37,VWS V13.01,2013-01-16 14:16:00,
2013-01-16 09:21:00,40.8,39.8,29.96,ENE,73,7.0,7.0,96,0.00,,---,0.37,VWS V13.01,2013-01-16 14:21:00,
2013-01-16 09:26:00,40.9,39.8,29.95,East,93,4.0,4.0,96,0.00,,---,0.37,VWS V13.01,2013-01-16 14:26:00,
2013-01-16 09:31:00,41.0,39.7,29.95,East,88,3.0,4.0,95,0.00,,---,0.37,VWS V13.01,2013-01-16 14:31:00,
2013-01-16 09:36:00,41.1,39.8,29.94,ESE,106,2.0,5.0,95,0.00,,---,0.37,VWS V13.01,2013-01-16 14:36:00,
2013-01-16 09:41:00,41.1,39.8,29.94,East,87,5.0,5.0,95,0.00,,---,0.37,VWS V13.01,2013-01-16 14:41:00,
2013-01-16 09:46:00,41.2,40.2,29.94,SE,140,2.0,4.0,96,0.01,,---,0.38,VWS V13.01,2013-01-16 14:46:00,
2013-01-16 09:51:00,41.3,40.2,29.95,ESE,111,0.0,3.0,96,0.01,,---,0.38,VWS V13.01,2013-01-16 14:51:00,
2013-01-16 09:56:00,41.3,40.2,29.95,SE,129,0.0,3.0,96,0.01,,---,0.38,VWS V13.01,2013-01-16 14:56:00,
2013-01-16 10:01:00,41.4,40.3,29.95,East,96,0.0,0.0,96,0.02,,---,0.39,VWS V13.01,2013-01-16 15:01:00,
2013-01-16 10:06:00,41.4,40.3,29.94,East,96,3.0,3.0,96,0.02,,---,0.39,VWS V13.01,2013-01-16 15:06:00,
2013-01-16 10:11:00,41.5,40.5,29.94,ESE,110,0.0,1.0,96,0.03,,---,0.40,VWS V13.01,2013-01-16 15:11:00,
2013-01-16 10:16:00,41.5,40.2,29.95,ESE,112,3.0,3.0,95,0.03,,---,0.40,VWS V13.01,2013-01-16 15:16:00,
2013-01-16 10:21:00,41.6,40.3,29.95,ESE,114,0.0,0.0,95,0.04,,---,0.41,VWS V13.01,2013-01-16 15:21:00,
2013-01-16 10:26:00,41.7,40.4,29.95,ESE,114,2.0,3.0,95,0.04,,---,0.41,VWS V13.01,2013-01-16 15:26:00,
2013-01-16 10:31:00,41.8,40.5,29.94,ESE,114,0.0,0.0,95,0.04,,---,0.41,VWS V13.01,2013-01-16 15:31:00,
2013-01-16 10:36:00,41.8,40.5,29.94,ESE,114,1.0,1.0,95,0.05,,---,0.42,VWS V13.01,2013-01-16 15:36:00,
2013-01-16 10:41:00,41.9,40.8,29.95,ESE,114,0.0,0.0,96,0.06,,---,0.43,VWS V13.01,2013-01-16 15:41:00,
2013-01-16 10:46:00,42.0,40.9,29.95,ESE,114,0.0,0.0,96,0.05,,---,0.43,VWS V13.01,2013-01-16 15:46:00,
2013-01-16 10:51:00,42.0,40.9,29.95,ESE,114,0.0,1.0,96,0.05,,---,0.43,VWS V13.01,2013-01-16 15:51:00,
2013-01-16 10:56:00,42.1,41.0,29.95,ESE,114,0.0,0.0,96,0.05,,---,0.43,VWS V13.01,2013-01-16 15:56:00,
2013-01-16 11:01:00,42.2,41.1,29.94,ESE,114,0.0,0.0,96,0.06,,---,0.44,VWS V13.01,2013-01-16 16:01:00,
2013-01-16 11:06:00,42.2,41.1,29.94,ESE,114,1.0,2.0,96,0.05,,---,0.44,VWS V13.01,2013-01-16 16:06:00,
2013-01-16 11:11:00,42.4,41.3,29.94,NE,35,1.0,2.0,96,0.05,,---,0.44,VWS V13.01,2013-01-16 16:11:00,
2013-01-16 11:16:00,42.4,42.4,29.94,NE,35,0.0,0.0,100,0.04,,---,0.44,VWS V13.01,2013-01-16 16:16:00,
2013-01-16 11:21:00,42.4,41.3,29.94,NE,35,0.0,0.0,96,0.03,,---,0.44,VWS V13.01,2013-01-16 16:21:00,
2013-01-16 11:26:00,42.4,41.3,29.93,NE,35,0.0,0.0,96,0.03,,---,0.44,VWS V13.01,2013-01-16 16:26:00,
2013-01-16 11:31:00,42.5,41.4,29.92,NE,35,0.0,0.0,96,0.03,,---,0.44,VWS V13.01,2013-01-16 16:31:00,
2013-01-16 11:36:00,42.5,41.4,29.92,NE,35,0.0,0.0,96,0.03,,---,0.44,VWS V13.01,2013-01-16 16:36:00,
2013-01-16 11:41:00,42.5,41.4,29.91,NE,35,0.0,0.0,96,0.03,,---,0.45,VWS V13.01,2013-01-16 16:41:00,
2013-01-16 11:46:00,42.6,41.5,29.90,NE,35,0.0,0.0,96,0.02,,---,0.45,VWS V13.01,2013-01-16 16:46:00,
2013-01-16 11:51:00,42.7,41.6,29.89,NE,35,0.0,0.0,96,0.02,,---,0.45,VWS V13.01,2013-01-16 16:51:00,
2013-01-16 11:56:00,42.9,41.8,29.89,NE,35,0.0,0.0,96,0.02,,---,0.45,VWS V13.01,2013-01-16 16:56:00,
2013-01-16 12:01:00,43.0,41.9,29.89,NE,35,0.0,0.0,96,0.01,,---,0.45,VWS V13.01,2013-01-16 17:01:00,
2013-01-16 12:06:00,43.0,41.9,29.89,NE,35,0.0,0.0,96,0.01,,---,0.45,VWS V13.01,2013-01-16 17:06:00,
2013-01-16 12:11:00,43.0,41.9,29.88,NE,35,0.0,0.0,96,0.01,,---,0.45,VWS V13.01,2013-01-16 17:11:00,
2013-01-16 12:16:00,43.1,42.0,29.88,NE,35,0.0,0.0,96,0.01,,---,0.45,VWS V13.01,2013-01-16 17:16:00,
2013-01-16 12:21:00,43.1,42.0,29.90,WNW,302,2.0,3.0,96,0.01,,---,0.45,VWS V13.01,2013-01-16 17:21:00,
2013-01-16 12:26:00,43.1,42.0,29.90,NNW,336,0.0,3.0,96,0.01,,---,0.45,VWS V13.01,2013-01-16 17:26:00,
2013-01-16 12:31:00,43.1,42.0,29.89,NNW,327,0.0,1.0,96,0.01,,---,0.45,VWS V13.01,2013-01-16 17:31:00,
2013-01-16 12:36:00,43.1,42.0,29.89,NNW,331,4.0,4.0,96,0.01,,---,0.45,VWS V13.01,2013-01-16 17:36:00,
2013-01-16 12:41:00,43.1,41.8,29.89,NW,308,0.0,3.0,95,0.00,,---,0.45,VWS V13.01,2013-01-16 17:41:00,
2013-01-16 12:46:00,43.0,41.7,29.89,NW,308,0.0,1.0,95,0.00,,---,0.45,VWS V13.01,2013-01-16 17:46:00,
2013-01-16 12:51:00,43.0,41.7,29.87,NW,308,0.0,0.0,95,0.00,,---,0.45,VWS V13.01,2013-01-16 17:51:00,
2013-01-16 12:56:00,43.0,41.7,29.87,NW,308,1.0,3.0,95,0.00,,---,0.45,VWS V13.01,2013-01-16 17:56:00,
2013-01-16 13:01:00,43.0,41.7,29.86,NW,308,0.0,0.0,95,0.00,,---,0.45,VWS V13.01,2013-01-16 18:01:00,
2013-01-16 13:06:00,43.0,41.7,29.86,NW,308,0.0,0.0,95,0.00,,---,0.45,VWS V13.01,2013-01-16 18:06:00,
2013-01-16 13:11:00,43.0,41.7,29.85,NW,308,0.0,0.0,95,0.00,,---,0.45,VWS V13.01,2013-01-16 18:11:00,
2013-01-16 13:16:00,42.9,41.6,29.85,NW,308,1.0,2.0,95,0.00,,---,0.45,VWS V13.01,2013-01-16 18:16:00,
2013-01-16 13:21:00,42.9,41.6,29.83,South,186,2.0,4.0,95,0.00,,---,0.45,VWS V13.01,2013-01-16 18:21:00,
2013-01-16 13:26:00,43.0,41.7,29.82,SSE,157,0.0,1.0,95,0.00,,---,0.45,VWS V13.01,2013-01-16 18:26:00,
2013-01-16 13:31:00,43.0,41.7,29.82,SSE,158,0.0,0.0,95,0.00,,---,0.45,VWS V13.01,2013-01-16 18:31:00,
2013-01-16 13:36:00,43.0,41.7,29.81,SSE,158,1.0,2.0,95,0.00,,---,0.45,VWS V13.01,2013-01-16 18:36:00,
2013-01-16 13:41:00,43.1,41.8,29.80,SSE,158,2.0,4.0,95,0.00,,---,0.45,VWS V13.01,2013-01-16 18:41:00,
2013-01-16 13:46:00,43.1,41.8,29.81,SSE,158,2.0,2.0,95,0.00,,---,0.45,VWS V13.01,2013-01-16 18:46:00,
2013-01-16 13:51:00,43.1,41.8,29.80,South,178,2.0,5.0,95,0.00,,---,0.45,VWS V13.01,2013-01-16 18:51:00,
2013-01-16 13:56:00,43.1,41.8,29.79,SSW,202,2.0,5.0,95,0.00,,---,0.45,VWS V13.01,2013-01-16 18:56:00,
2013-01-16 14:01:00,43.1,41.8,29.79,SSE,163,5.0,5.0,95,0.00,,---,0.45,VWS V13.01,2013-01-16 19:01:00,
2013-01-16 14:06:00,43.1,41.8,29.78,South,178,5.0,5.0,95,0.00,,---,0.45,VWS V13.01,2013-01-16 19:06:00,
2013-01-16 14:11:00,43.1,41.8,29.78,SSE,161,3.0,5.0,95,0.00,,---,0.45,VWS V13.01,2013-01-16 19:11:00,
2013-01-16 14:16:00,43.2,42.1,29.78,SSW,194,4.0,4.0,96,0.00,,---,0.45,VWS V13.01,2013-01-16 19:16:00,
2013-01-16 14:21:00,43.2,42.1,29.78,SSW,213,0.0,2.0,96,0.00,,---,0.45,VWS V13.01,2013-01-16 19:21:00,
2013-01-16 14:26:00,43.2,42.1,29.83,NW,320,3.0,4.0,96,0.00,,---,0.45,VWS V13.01,2013-01-16 19:26:00,
2013-01-16 14:31:00,43.3,42.2,29.84,NW,310,6.0,7.0,96,0.00,,---,0.45,VWS V13.01,2013-01-16 19:31:00,
2013-01-16 14:36:00,43.4,42.3,29.86,WNW,300,2.0,4.0,96,0.00,,---,0.45,VWS V13.01,2013-01-16 19:36:00,
2013-01-16 14:41:00,43.6,42.5,29.87,WNW,302,4.0,6.0,96,0.00,,---,0.45,VWS V13.01,2013-01-16 19:41:00,
2013-01-16 14:46:00,43.4,42.1,29.85,NW,326,4.0,7.0,95,0.00,,---,0.45,VWS V13.01,2013-01-16 19:46:00,
2013-01-16 14:51:00,42.7,41.4,29.86,WNW,286,2.0,6.0,95,0.00,,---,0.45,VWS V13.01,2013-01-16 19:51:00,
2013-01-16 14:56:00,42.4,41.1,29.86,NW,314,0.0,2.0,95,0.00,,---,0.45,VWS V13.01,2013-01-16 19:56:00,
2013-01-16 15:01:00,42.0,40.7,29.88,NW,304,2.0,7.0,95,0.00,,---,0.45,VWS V13.01,2013-01-16 20:01:00,
2013-01-16 15:06:00,41.6,40.3,29.87,North,11,1.0,2.0,95,0.00,,---,0.45,VWS V13.01,2013-01-16 20:06:00,
2013-01-16 15:11:00,41.3,40.0,29.86,NW,309,3.0,3.0,95,0.00,,---,0.45,VWS V13.01,2013-01-16 20:11:00,
2013-01-16 15:16:00,40.9,39.6,29.86,NW,318,1.0,3.0,95,0.00,,---,0.45,VWS V13.01,2013-01-16 20:16:00,
2013-01-16 15:21:00,40.6,39.3,29.85,NNW,329,0.0,0.0,95,0.00,,---,0.45,VWS V13.01,2013-01-16 20:21:00,
2013-01-16 15:26:00,40.4,39.1,29.87,NNW,329,3.0,3.0,95,0.00,,---,0.45,VWS V13.01,2013-01-16 20:26:00,
2013-01-16 15:31:00,40.3,39.0,29.85,West,269,2.0,3.0,95,0.00,,---,0.45,VWS V13.01,2013-01-16 20:31:00,
2013-01-16 15:36:00,40.1,38.8,29.88,NNW,331,5.0,6.0,95,0.00,,---,0.45,VWS V13.01,2013-01-16 20:36:00,
2013-01-16 15:41:00,40.0,38.7,29.84,North,360,0.0,0.0,95,0.00,,---,0.45,VWS V13.01,2013-01-16 20:41:00,
2013-01-16 15:46:00,39.8,38.5,29.88,NW,306,4.0,6.0,95,0.00,,---,0.45,VWS V13.01,2013-01-16 20:46:00,
2013-01-16 15:51:00,39.7,38.4,29.90,WNW,300,6.0,12.0,95,0.00,,---,0.45,VWS V13.01,2013-01-16 20:51:00,
2013-01-16 15:56:00,39.3,38.0,29.91,North,351,6.0,10.0,95,0.00,,---,0.45,VWS V13.01,2013-01-16 20:56:00,
2013-01-16 16:01:00,39.1,37.8,29.90,NNW,342,5.0,9.0,95,0.00,,---,0.45,VWS V13.01,2013-01-16 21:01:00,
2013-01-16 16:06:00,38.8,37.5,29.90,NW,323,3.0,3.0,95,0.00,,---,0.45,VWS V13.01,2013-01-16 21:06:00,
2013-01-16 16:11:00,38.6,37.3,29.89,NNW,348,4.0,4.0,95,0.00,,---,0.45,VWS V13.01,2013-01-16 21:11:00,
2013-01-16 16:16:00,38.4,37.1,29.88,WNW,298,3.0,3.0,95,0.00,,---,0.45,VWS V13.01,2013-01-16 21:16:00,
2013-01-16 16:21:00,38.2,36.9,29.91,NNW,334,0.0,1.0,95,0.00,,---,0.45,VWS V13.01,2013-01-16 21:21:00,
2013-01-16 16:26:00,38.0,36.7,29.90,NNW,336,3.0,3.0,95,0.00,,---,0.45,VWS V13.01,2013-01-16 21:26:00,
2013-01-16 16:31:00,37.9,36.6,29.91,NNW,330,2.0,3.0,95,0.00,,---,0.45,VWS V13.01,2013-01-16 21:31:00,
2013-01-16 16:36:00,37.8,36.5,29.90,NW,315,1.0,1.0,95,0.00,,---,0.45,VWS V13.01,2013-01-16 21:36:00,
2013-01-16 16:41:00,37.7,36.4,29.91,NW,315,0.0,0.0,95,0.00,,---,0.45,VWS V13.01,2013-01-16 21:41:00,
2013-01-16 16:46:00,37.7,36.4,29.91,NW,315,0.0,0.0,95,0.00,,---,0.45,VWS V13.01,2013-01-16 21:46:00,
2013-01-16 16:51:00,37.6,36.3,29.91,NNW,333,3.0,6.0,95,0.00,,---,0.45,VWS V13.01,2013-01-16 21:51:00,
2013-01-16 16:56:00,37.6,36.3,29.91,WNW,298,1.0,2.0,95,0.00,,---,0.45,VWS V13.01,2013-01-16 21:56:00,
2013-01-16 17:01:00,37.5,36.2,29.91,WNW,298,3.0,3.0,95,0.00,,---,0.45,VWS V13.01,2013-01-16 22:01:00,
2013-01-16 17:06:00,37.5,36.2,29.90,WNW,298,0.0,3.0,95,0.00,,---,0.45,VWS V13.01,2013-01-16 22:06:00,
2013-01-16 17:11:00,37.5,36.2,29.90,SW,226,0.0,2.0,95,0.00,,---,0.45,VWS V13.01,2013-01-16 22:11:00,
2013-01-16 17:16:00,37.5,36.2,29.90,SW,226,0.0,0.0,95,0.00,,---,0.45,VWS V13.01,2013-01-16 22:16:00,
2013-01-16 17:21:00,37.5,36.2,29.90,SW,226,0.0,0.0,95,0.00,,---,0.45,VWS V13.01,2013-01-16 22:21:00,
2013-01-16 17:26:00,37.5,36.2,29.90,SW,226,2.0,2.0,95,0.00,,---,0.45,VWS V13.01,2013-01-16 22:26:00,
2013-01-16 17:31:00,37.5,36.2,29.91,WNW,287,0.0,3.0,95,0.00,,---,0.45,VWS V13.01,2013-01-16 22:31:00,
2013-01-16 17:36:00,37.5,36.2,29.90,WNW,287,2.0,3.0,95,0.00,,---,0.45,VWS V13.01,2013-01-16 22:36:00,
2013-01-16 17:41:00,37.5,36.2,29.91,WNW,287,0.0,0.0,95,0.00,,---,0.45,VWS V13.01,2013-01-16 22:41:00,
2013-01-16 17:46:00,37.5,36.2,29.91,WNW,287,0.0,1.0,95,0.00,,---,0.45,VWS V13.01,2013-01-16 22:46:00,
2013-01-16 17:51:00,37.5,36.2,29.91,WNW,287,0.0,1.0,95,0.00,,---,0.45,VWS V13.01,2013-01-16 22:51:00,
2013-01-16 17:56:00,37.6,36.3,29.92,NW,304,0.0,1.0,95,0.00,,---,0.45,VWS V13.01,2013-01-16 22:56:00,
2013-01-16 18:01:00,37.6,36.3,29.93,NW,306,1.0,1.0,95,0.00,,---,0.45,VWS V13.01,2013-01-16 23:01:00,
2013-01-16 18:06:00,37.7,36.4,29.91,NW,305,0.0,0.0,95,0.00,,---,0.45,VWS V13.01,2013-01-16 23:06:00,
2013-01-16 18:11:00,37.7,36.4,29.91,NW,305,0.0,0.0,95,0.00,,---,0.45,VWS V13.01,2013-01-16 23:11:00,
2013-01-16 18:16:00,37.7,36.4,29.91,NW,306,0.0,3.0,95,0.00,,---,0.45,VWS V13.01,2013-01-16 23:16:00,
2013-01-16 18:21:00,37.8,36.8,29.92,NW,306,3.0,4.0,96,0.00,,---,0.45,VWS V13.01,2013-01-16 23:21:00,
2013-01-16 18:26:00,37.8,36.5,29.92,NW,309,0.0,0.0,95,0.00,,---,0.45,VWS V13.01,2013-01-16 23:26:00,
2013-01-16 18:31:00,37.8,36.5,29.92,WNW,292,0.0,3.0,95,0.00,,---,0.45,VWS V13.01,2013-01-16 23:31:00,
2013-01-16 18:36:00,37.8,36.8,29.91,WNW,292,3.0,4.0,96,0.00,,---,0.45,VWS V13.01,2013-01-16 23:36:00,
2013-01-16 18:41:00,37.8,36.8,29.92,WNW,292,0.0,0.0,96,0.00,,---,0.45,VWS V13.01,2013-01-16 23:41:00,
2013-01-16 18:46:00,37.8,36.8,29.92,WNW,292,2.0,3.0,96,0.00,,---,0.45,VWS V13.01,2013-01-16 23:46:00,
2013-01-16 18:51:00,37.8,36.8,29.92,West,265,4.0,4.0,96,0.00,,---,0.45,VWS V13.01,2013-01-16 23:51:00,
2013-01-16 18:56:00,37.8,36.5,29.91,West,274,2.0,4.0,95,0.00,,---,0.45,VWS V13.01,2013-01-16 23:56:00,
2013-01-16 19:01:00,37.8,36.8,29.92,West,274,0.0,3.0,96,0.00,,---,0.45,VWS V13.01,2013-01-17 00:01:00,
2013-01-16 19:06:00,37.8,36.5,29.92,West,274,0.0,0.0,95,0.00,,---,0.45,VWS V13.01,2013-01-17 00:06:00,
2013-01-16 19:11:00,37.9,36.6,29.92,WNW,289,0.0,3.0,95,0.00,,---,0.45,VWS V13.01,2013-01-17 00:11:00,
2013-01-16 19:16:00,37.9,36.6,29.92,WNW,289,0.0,1.0,95,0.00,,---,0.45,VWS V13.01,2013-01-17 00:16:00,
2013-01-16 19:21:00,37.9,36.9,29.93,WNW,289,1.0,1.0,96,0.00,,---,0.45,VWS V13.01,2013-01-17 00:21:00,
2013-01-16 19:26:00,38.0,36.7,29.92,SW,221,2.0,5.0,95,0.00,,---,0.45,VWS V13.01,2013-01-17 00:26:00,
2013-01-16 19:31:00,38.0,36.7,29.92,SW,225,0.0,3.0,95,0.00,,---,0.45,VWS V13.01,2013-01-17 00:31:00,
2013-01-16 19:36:00,38.0,36.7,29.91,SW,234,0.0,2.0,95,0.00,,---,0.45,VWS V13.01,2013-01-17 00:36:00,
2013-01-16 19:41:00,38.0,36.7,29.91,SW,232,2.0,4.0,95,0.00,,---,0.45,VWS V13.01,2013-01-17 00:41:00,
2013-01-16 19:46:00,38.0,36.7,29.92,SW,235,0.0,2.0,95,0.00,,---,0.45,VWS V13.01,2013-01-17 00:46:00,
2013-01-16 19:51:00,38.1,36.8,29.92,WSW,248,0.0,3.0,95,0.00,,---,0.45,VWS V13.01,2013-01-17 00:51:00,
2013-01-16 19:56:00,38.1,36.8,29.92,WSW,248,0.0,0.0,95,0.00,,---,0.45,VWS V13.01,2013-01-17 00:56:00,
2013-01-16 20:01:00,38.2,36.9,29.92,WSW,248,2.0,4.0,95,0.00,,---,0.45,VWS V13.01,2013-01-17 01:01:00,
2013-01-16 20:06:00,38.2,37.2,29.91,WSW,248,0.0,1.0,96,0.00,,---,0.45,VWS V13.01,2013-01-17 01:06:00,
2013-01-16 20:10:00,38.1,37.1,29.91,WSW,242,0.0,3.0,96,0.00,,---,0.45,VWS V13.01,2013-01-17 01:10:00,
2013-01-16 20:15:00,38.2,37.2,29.92,SW,218,2.0,4.0,96,0.00,,---,0.45,VWS V13.01,2013-01-17 01:15:00,
2013-01-16 20:20:00,38.2,37.2,29.92,WSW,242,0.0,3.0,96,0.00,,---,0.45,VWS V13.01,2013-01-17 01:20:00,
2013-01-16 20:26:00,38.3,37.3,29.92,West,262,0.0,2.0,96,0.00,,---,0.45,VWS V13.01,2013-01-17 01:26:00,
2013-01-16 20:30:00,38.3,37.3,29.92,WSW,237,6.0,6.0,96,0.00,,---,0.45,VWS V13.01,2013-01-17 01:30:00,
2013-01-16 20:36:00,38.2,37.2,29.91,WSW,242,2.0,5.0,96,0.00,,---,0.45,VWS V13.01,2013-01-17 01:36:00,
2013-01-16 20:41:00,38.3,37.3,29.91,SW,219,0.0,3.0,96,0.00,,---,0.45,VWS V13.01,2013-01-17 01:41:00,
2013-01-16 20:46:00,38.2,37.2,29.92,West,273,2.0,2.0,96,0.00,,---,0.45,VWS V13.01,2013-01-17 01:46:00,
2013-01-16 20:51:00,38.2,37.2,29.92,West,265,2.0,7.0,96,0.00,,---,0.45,VWS V13.01,2013-01-17 01:51:00,
2013-01-16 20:56:00,38.2,37.2,29.92,SW,230,2.0,4.0,96,0.00,,---,0.45,VWS V13.01,2013-01-17 01:56:00,
2013-01-16 21:00:00,38.2,37.2,29.92,WNW,292,3.0,5.0,96,0.00,,---,0.45,VWS V13.01,2013-01-17 02:00:00,
2013-01-16 21:05:00,38.2,36.9,29.93,WSW,249,0.0,1.0,95,0.00,,---,0.45,VWS V13.01,2013-01-17 02:05:00,
2013-01-16 21:10:00,38.2,36.9,29.93,West,279,0.0,2.0,95,0.00,,---,0.45,VWS V13.01,2013-01-17 02:10:00,
2013-01-16 21:15:00,38.2,36.9,29.92,WNW,290,0.0,0.0,95,0.00,,---,0.45,VWS V13.01,2013-01-17 02:15:00,
2013-01-16 21:20:00,38.3,37.0,29.93,NW,307,3.0,5.0,95,0.00,,---,0.45,VWS V13.01,2013-01-17 02:20:00,
2013-01-16 21:25:00,38.3,37.0,29.93,West,279,1.0,1.0,95,0.00,,---,0.45,VWS V13.01,2013-01-17 02:25:00,
2013-01-16 21:30:00,38.2,36.9,29.92,NW,307,0.0,4.0,95,0.00,,---,0.45,VWS V13.01,2013-01-17 02:30:00,
2013-01-16 21:35:00,38.3,37.0,29.93,WNW,293,2.0,7.0,95,0.00,,---,0.45,VWS V13.01,2013-01-17 02:35:00,
2013-01-16 21:40:00,38.3,37.0,29.92,West,272,0.0,3.0,95,0.00,,---,0.45,VWS V13.01,2013-01-17 02:40:00,
2013-01-16 21:45:00,38.3,37.0,29.92,West,272,2.0,3.0,95,0.00,,---,0.45,VWS V13.01,2013-01-17 02:45:00,
2013-01-16 21:50:00,38.3,37.0,29.92,West,272,2.0,2.0,95,0.00,,---,0.45,VWS V13.01,2013-01-17 02:50:00,
2013-01-16 21:55:00,38.3,37.0,29.93,NW,311,0.0,1.0,95,0.00,,---,0.45,VWS V13.01,2013-01-17 02:55:00,
2013-01-16 22:00:00,38.4,37.1,29.93,NNW,335,2.0,2.0,95,0.00,,---,0.45,VWS V13.01,2013-01-17 03:00:00,
2013-01-16 22:05:00,38.4,37.1,29.92,NW,306,0.0,0.0,95,0.00,,---,0.45,VWS V13.01,2013-01-17 03:05:00,
2013-01-16 22:10:00,38.4,37.1,29.91,West,263,0.0,2.0,95,0.00,,---,0.45,VWS V13.01,2013-01-17 03:10:00,
2013-01-16 22:15:00,38.4,37.1,29.91,West,263,0.0,2.0,95,0.00,,---,0.45,VWS V13.01,2013-01-17 03:15:00,
2013-01-16 22:20:00,38.4,37.1,29.91,West,261,4.0,4.0,95,0.00,,---,0.45,VWS V13.01,2013-01-17 03:20:00,
2013-01-16 22:25:00,38.4,37.1,29.91,WNW,290,1.0,4.0,95,0.00,,---,0.45,VWS V13.01,2013-01-17 03:25:00,
2013-01-16 22:30:00,38.4,37.1,29.93,WNW,294,4.0,12.0,95,0.00,,---,0.45,VWS V13.01,2013-01-17 03:30:00,
2013-01-16 22:35:00,38.4,37.1,29.92,West,261,0.0,0.0,95,0.00,,---,0.45,VWS V13.01,2013-01-17 03:35:00,
2013-01-16 22:40:00,38.4,37.1,29.92,West,259,0.0,0.0,95,0.00,,---,0.45,VWS V13.01,2013-01-17 03:40:00,
2013-01-16 22:45:00,38.4,37.1,29.92,NW,304,1.0,4.0,95,0.00,,---,0.45,VWS V13.01,2013-01-17 03:45:00,
2013-01-16 22:50:00,38.4,37.1,29.92,NW,304,0.0,3.0,95,0.00,,---,0.45,VWS V13.01,2013-01-17 03:50:00,
2013-01-16 22:55:00,38.4,37.1,29.92,NW,304,2.0,2.0,95,0.00,,---,0.45,VWS V13.01,2013-01-17 03:55:00,
2013-01-16 23:00:00,38.5,37.2,29.93,West,279,2.0,2.0,95,0.00,,---,0.45,VWS V13.01,2013-01-17 04:00:00,
2013-01-16 23:05:00,38.5,37.2,29.93,West,265,1.0,2.0,95,0.00,,---,0.45,VWS V13.01,2013-01-17 04:05:00,
2013-01-16 23:10:00,38.5,37.2,29.93,West,260,0.0,0.0,95,0.00,,---,0.45,VWS V13.01,2013-01-17 04:10:00,
2013-01-16 23:15:00,38.5,37.2,29.93,West,267,2.0,2.0,95,0.00,,---,0.45,VWS V13.01,2013-01-17 04:15:00,
2013-01-16 23:20:00,38.5,37.2,29.93,NW,322,6.0,6.0,95,0.00,,---,0.45,VWS V13.01,2013-01-17 04:20:00,
2013-01-16 23:25:00,38.6,37.3,29.92,WSW,250,0.0,0.0,95,0.00,,---,0.45,VWS V13.01,2013-01-17 04:25:00,
2013-01-16 23:30:00,38.5,37.2,29.92,West,276,0.0,3.0,95,0.00,,---,0.45,VWS V13.01,2013-01-17 04:30:00,
2013-01-16 23:35:00,38.6,37.3,29.92,NW,311,0.0,0.0,95,0.00,,---,0.45,VWS V13.01,2013-01-17 04:35:00,
2013-01-16 23:40:00,38.6,37.3,29.92,West,259,0.0,0.0,95,0.00,,---,0.45,VWS V13.01,2013-01-17 04:40:00,
2013-01-16 23:45:00,38.6,37.3,29.92,West,259,3.0,3.0,95,0.00,,---,0.45,VWS V13.01,2013-01-17 04:45:00,
2013-01-16 23:50:00,38.6,37.3,29.92,West,259,0.0,0.0,95,0.00,,---,0.45,VWS V13.01,2013-01-17 04:50:00,
2013-01-16 23:55:00,38.6,37.3,29.92,West,259,0.0,0.0,95,0.00,,---,0.45,VWS V13.01,2013-01-17 04:55:00,